Wind_Speed
62 62 63 64 65 66 67 68 69 71 72 73 74 76 77 79 80 81 81 82 82 82 82 83 84 84 84 85 86 87 90 91 92 93 93 94 94 96 97 98 100 102 102 101 102 104 103 103 104 105 105 106 108 108 107 106 106 106 106 107 107 107 106 107 107 107 107 109 109 108 106 104 103 103 103 101 98 95 94 94 95 95 95 95 95
59 60 61 61 62 62 63 63 64 65 67 69 70 72 74 76 77 78 80 81 82 82 82 83 83 82 83 83 83 84 86 88 89 91 91 90 90 92 93 95 97 99 98 98 99 100 101 102 103 103 103 104 106 105 104 104 104 105 106 106 107 107 107 107 106 106 106 107 108 108 108 106 105 104 104 102 99 97 96 96 96 96 95 94 94
57 58 58 59 59 60 60 60 61 62 63 64 66 68 70 72 74 75 76 77 78 79 80 81 82 82 82 82 83 83 84 86 87 88 88 88 88 88 89 91 93 95 95 95 95 95 96 98 99 98 98 99 101 101 99 99 100 102 104 105 105 106 106 106 106 105 105 105 106 107 107 107 106 105 104 103 100 98 96 96 96 96 96 95 94
55 55 56 56 57 58 59 59 60 60 61 62 63 64 66 68 70 71 72 74 75 76 77 77 78 78 79 79 80 81 82 83 84 85 85 85 85 85 85 86 89 90 92 93 93 92 92 93 92 90 88 88 91 93 93 92 94 96 99 101 102 103 103 104 104 103 103 103 104 105 106 106 105 105 104 102 100 97 95 95 94 95 95 95 93
52 52 53 54 55 56 57 58 59 60 60 61 62 62 63 64 65 67 68 69 71 72 73 74 74 75 75 76 76 77 78 80 81 81 81 81 82 82 81 82 84 86 87 88 89 89 89 89 88 86 82 80 81 84 86 87 87 89 91 94 96 98 99 100 100 100 99 100 100 101 102 103 103 103 102 100 98 96 94 93 93 93 93 93 91
48 48 50 51 53 54 55 56 57 58 59 59 60 61 62 62 63 64 65 66 67 68 69 70 70 71 72 72 72 73 74 76 76 76 77 78 78 79 78 78 79 80 83 84 84 85 85 85 86 84 80 77 78 80 82 82 81 81 83 86 88 91 93 94 95 95 95 96 97 97 98 100 100 100 99 97 95 93 92 92 92 92 92 91 89
45 44 45 47 48 50 52 54 55 56 57 58 58 59 60 60 61 62 63 64 65 66 66 67 67 67 68 68 69 69 70 71 72 73 74 75 75 76 76 75 75 75 78 80 80 81 81 81 83 83 79 77 78 79 79 77 76 77 78 80 82 84 86 89 90 91 92 93 93 94 94 96 97 96 96 94 91 90 90 91 91 91 91 89 87
42 42 42 42 43 45 47 50 51 53 55 56 57 58 58 59 59 60 61 62 63 64 64 64 64 65 65 65 65 65 66 67 68 70 71 71 72 72 72 71 71 71 73 75 76 77 77 78 80 80 78 77 78 78 76 74 73 74 75 76 78 79 82 85 86 88 90 90 91 91 91 92 93 93 92 90 88 87 88 89 89 89 88 86 84
40 40 40 40 41 42 44 47 49 50 52 54 55 56 56 56 57 58 58 58 60 61 62 62 62 62 62 62 62 63 63 64 66 67 68 69 68 69 69 68 68 68 69 70 71 72 72 73 75 76 75 75 75 75 74 71 71 72 72 73 75 76 79 82 83 85 86 87 88 88 88 88 89 90 89 88 86 86 87 87 86 85 84 83 80
38 39 40 40 40 42 44 46 48 49 51 52 53 53 53 54 54 54 54 54 56 57 58 58 58 58 58 58 59 60 60 62 63 63 63 65 65 65 66 67 67 66 65 66 66 66 67 69 71 71 70 71 71 71 70 68 68 69 70 71 72 75 77 79 79 80 80 82 83 84 84 85 86 87 86 85 85 84 83 83 82 81 80 78 76
36 37 38 39 39 41 43 45 47 49 51 51 51 51 52 53 52 51 51 51 52 52 52 52 52 52 52 53 54 55 56 57 58 58 58 60 61 62 63 64 65 64 63 62 62 62 64 66 67 67 66 66 66 66 66 66 66 66 67 69 71 73 74 75 74 74 74 75 76 78 80 82 84 84 83 83 83 80 79 78 77 76 75 73 73
35 36 36 37 37 38 40 44 46 48 49 49 49 50 51 51 51 49 49 50 50 50 49 49 48 47 47 48 50 51 52 53 54 54 54 55 56 57 59 60 60 60 59 59 58 59 61 63 64 64 63 63 62 62 63 63 63 63 64 66 68 69 70 70 70 69 69 70 71 73 76 78 80 81 81 81 79 76 75 75 73 72 71 70 71
34 35 34 34 35 36 39 42 44 45 46 47 48 49 49 50 49 49 49 50 50 50 49 48 47 45 44 46 46 47 48 49 50 52 53 53 53 54 55 56 55 55 56 56 56 56 57 60 61 61 60 60 60 60 60 61 61 61 62 62 64 65 66 66 65 65 66 67 68 70 72 74 76 77 78 77 74 73 72 71 69 68 67 69 71
33 33 33 32 33 35 38 39 41 42 44 45 45 46 46 47 47 47 48 49 49 49 48 47 46 44 43 43 43 43 43 44 46 48 51 52 51 51 51 51 51 52 52 53 53 53 56 58 59 58 58 58 57 57 58 58 58 58 58 59 60 62 62 62 62 63 64 65 66 67 69 71 72 73 73 72 70 68 68 66 66 65 66 69 71
33 32 32 32 33 34 36 38 39 40 41 42 42 42 43 43 44 45 46 47 47 47 47 45 43 41 40 39 39 39 39 39 41 43 46 48 49 49 47 47 48 49 50 51 52 53 55 57 56 54 55 55 55 56 55 55 55 55 56 56 58 60 60 59 60 62 62 63 64 65 67 68 68 68 68 67 65 64 64 63 64 65 66 69 70
31 31 31 32 32 33 35 37 38 39 39 39 39 40 40 41 41 42 43 44 44 45 44 42 40 38 36 35 36 36 35 36 37 38 41 44 46 46 45 44 45 47 49 50 52 52 54 55 54 52 54 54 53 54 53 52 53 53 54 55 55 57 58 57 59 60 60 61 62 63 64 64 64 64 63 63 62 61 61 62 64 65 66 67 67
29 30 31 31 31 32 34 35 37 37 37 37 37 37 38 39 39 40 41 41 41 41 41 39 38 36 34 32 33 33 33 33 34 35 37 39 41 43 44 43 44 46 47 49 50 51 52 53 52 51 52 52 52 52 50 50 52 52 53 53 53 54 55 56 57 58 58 58 59 59 59 60 61 61 60 60 60 60 61 62 64 64 63 63 65
29 29 30 30 30 32 33 34 35 35 35 35 35 36 37 38 38 39 39 39 39 39 38 37 36 35 32 30 31 32 31 32 32 32 34 36 38 40 42 43 44 44 46 47 48 48 49 51 51 50 51 51 50 49 48 49 50 51 51 51 51 51 53 53 54 55 55 55 55 55 55 57 58 59 58 58 58 59 61 62 61 61 61 62 63
28 28 28 28 29 31 33 33 34 34 34 34 35 36 37 37 38 38 38 38 38 37 37 36 35 33 31 29 30 30 30 31 32 32 33 34 37 39 42 44 44 44 45 45 45 45 46 48 49 49 50 49 48 48 48 48 49 49 49 48 47 48 50 51 52 53 54 53 52 53 54 55 57 58 57 57 57 59 59 59 59 59 60 61 61
27 26 26 27 28 30 32 32 32 33 34 34 34 35 36 36 36 36 37 37 36 35 34 33 32 31 30 28 28 29 29 29 31 32 32 34 37 40 42 43 44 44 44 43 43 44 44 46 48 48 48 48 47 46 47 48 48 47 46 43 43 46 49 50 51 51 52 52 52 52 53 54 55 56 55 55 56 56 56 56 58 59 59 60 60
27 26 26 27 29 30 31 31 32 32 33 33 33 34 34 34 34 34 34 33 32 31 30 29 29 29 28 27 27 28 28 28 29 30 31 33 36 39 40 41 42 41 41 41 41 42 43 45 47 47 46 46 46 46 47 47 45 43 41 40 43 47 49 48 48 49 50 51 52 52 53 53 53 54 54 54 53 54 55 57 58 57 57 58 58
27 27 27 28 29 30 30 31 31 32 31 31 31 32 32 32 31 30 29 29 28 27 26 26 26 26 26 26 26 26 27 27 28 28 29 31 33 35 37 38 39 39 38 39 40 42 43 44 45 45 44 45 45 46 46 44 42 40 40 41 44 46 46 46 47 48 50 51 52 52 51 51 51 51 52 52 52 54 55 55 55 55 55 56 57
28 28 28 29 29 29 29 30 30 30 29 29 30 30 29 28 27 26 25 24 24 23 24 24 24 25 25 24 24 24 25 25 26 26 27 29 31 32 33 34 36 36 37 38 40 41 43 43 43 42 42 43 43 43 43 42 41 39 39 42 44 45 45 46 48 48 49 49 49 49 48 48 49 50 51 52 53 53 53 53 53 53 54 55 57
28 28 28 28 28 28 28 28 28 28 27 28 28 27 26 25 24 23 21 21 21 21 22 22 23 23 23 23 23 23 23 24 25 25 26 28 29 30 31 32 33 34 36 38 39 41 41 41 41 40 39 40 41 41 41 40 38 36 38 42 43 44 45 46 46 46 46 46 46 46 46 47 48 50 51 52 52 51 50 51 51 52 53 55 57
27 27 27 26 26 26 26 26 26 26 26 25 25 25 24 23 22 20 19 19 19 19 19 19 20 20 20 21 22 22 23 23 24 24 26 27 28 29 29 30 32 33 35 37 38 39 39 39 39 38 38 38 39 39 39 37 36 37 40 42 43 43 44 43 43 43 44 44 44 44 45 47 49 50 50 50 49 48 49 50 51 52 53 54 54
27 26 26 25 25 25 25 25 25 25 24 23 22 22 21 21 20 19 17 17 16 16 16 17 17 18 19 20 21 21 22 22 23 23 24 25 26 27 28 29 30 32 34 35 36 37 37 37 37 36 36 37 37 37 37 37 38 40 41 41 41 41 41 41 41 41 42 42 43 44 46 47 47 47 47 47 47 47 48 49 51 52 52 52 51
26 25 25 25 24 24 25 24 24 23 22 21 20 20 19 18 17 16 15 15 15 15 15 16 16 17 18 19 20 20 21 21 22 22 22 23 24 25 26 27 29 31 32 34 34 35 36 36 35 35 35 35 36 37 38 38 38 38 38 38 39 39 39 39 39 40 41 42 43 45 45 45 44 43 44 45 46 47 48 49 49 49 49 50 49
26 25 25 25 25 24 24 24 23 22 20 19 18 18 17 16 15 14 14 15 15 15 15 16 16 16 17 18 19 20 20 20 20 20 21 21 22 23 25 26 28 30 31 33 33 34 34 34 34 34 35 36 37 37 38 37 37 37 37 37 37 37 37 38 38 39 41 42 42 42 41 41 41 41 42 44 45 47 47 47 47 47 47 48 48
25 25 25 25 24 24 24 23 21 20 19 18 16 15 14 13 13 14 15 15 15 15 15 15 16 16 16 17 18 18 19 19 19 19 20 20 21 22 23 25 27 28 30 31 32 32 33 33 34 34 35 36 36 37 37 36 36 36 35 35 35 36 37 37 38 39 39 39 39 38 38 39 40 41 42 43 44 45 45 45 45 45 46 47 47
25 24 24 24 23 23 22 20 19 18 17 16 15 13 12 13 14 14 15 15 14 14 14 15 15 15 15 15 16 16 17 17 17 18 18 19 20 20 22 23 25 26 28 29 30 31 32 33 34 35 35 35 36 35 35 34 34 34 34 34 35 35 36 36 36 36 36 35 36 36 37 38 39 40 41 42 42 42 43 43 44 44 45 46 46
24 24 24 23 22 21 20 18 17 17 16 15 14 13 13 13 14 14 14 13 12 12 13 13 12 12 12 13 13 14 14 15 15 16 17 17 18 19 20 22 24 25 27 28 29 30 31 32 32 32 33 33 33 32 32 32 32 32 33 33 33 33 33 33 33 33 33 33 34 35 36 37 38 39 39 40 40 41 42 42 43 44 44 44 44
24 24 23 22 22 20 19 17 16 16 15 14 13 13 14 14 13 12 11 10 10 9 9 9 8 8 9 10 10 11 12 12 13 14 15 16 17 18 20 21 23 24 25 26 27 27 28 29 29 30 30 30 30 30 30 30 30 30 30 30 30 30 30 30 30 31 32 32 33 34 35 36 36 37 38 39 39 40 41 42 42 42 42 43 43
23 23 23 22 20 19 18 17 16 14 13 12 12 13 13 12 11 10 9 8 7 6 5 5 5 6 6 7 7 8 9 10 11 12 14 15 17 18 19 20 21 22 23 24 24 25 26 26 27 27 28 28 28 28 28 28 27 27 27 27 27 27 28 29 29 30 31 31 32 33 33 34 35 36 37 38 39 39 40 41 41 41 41 41 41
23 22 22 21 19 18 17 16 15 13 12 12 12 12 11 9 9 9 8 7 5 4 2 2 2 3 4 4 5 6 7 8 10 11 13 15 16 17 18 20 21 22 22 23 23 24 24 25 25 25 24 24 24 24 24 24 24 24 25 25 26 27 27 28 28 29 29 30 30 31 32 33 34 35 36 37 38 39 39 39 40 40 40 39 39
23 22 21 19 18 17 16 15 14 13 12 11 12 11 9 8 8 8 7 6 4 3 1 1 1 2 2 3 3 4 5 6 7 9 10 12 14 15 17 18 19 19 20 20 21 21 21 21 21 21 21 21 21 21 22 22 22 23 24 24 25 25 26 26 26 27 28 28 29 30 31 32 33 34 36 36 37 38 38 39 39 38 38 38 38
22 21 20 18 17 16 15 14 14 13 12 11 11 9 8 8 7 7 5 5 4 2 0 1 2 2 2 2 3 3 4 5 5 6 7 9 11 12 13 14 14 15 16 17 18 18 18 18 18 19 19 19 20 20 21 21 22 22 23 23 23 24 24 24 25 26 27 28 29 30 31 32 33 34 35 36 37 37 38 38 38 37 37 37 36
21 20 18 17 16 15 13 13 13 13 12 11 10 9 8 7 7 6 5 5 4 2 1 2 2 2 2 2 3 3 4 5 5 6 6 7 9 10 10 11 12 13 13 14 15 16 17 17 18 18 18 19 19 20 20 20 21 21 21 21 22 22 23 23 24 25 26 27 28 29 30 32 33 34 35 36 36 37 37 37 37 36 36 35 35
20 19 17 16 15 13 12 13 12 11 10 10 9 8 8 7 7 6 5 4 3 2 2 3 4 3 3 3 4 4 4 5 5 6 6 8 8 9 10 11 12 13 14 14 15 15 16 17 17 18 18 18 18 18 19 19 19 19 19 20 20 21 22 23 23 24 25 26 28 29 30 32 33 34 35 36 36 36 36 36 36 35 35 35 34
19 18 16 15 14 13 12 12 11 9 8 9 8 8 7 7 6 5 4 3 3 2 2 3 4 5 5 5 5 5 6 6 6 6 6 7 9 10 11 12 13 13 14 14 14 15 15 16 16 17 16 16 16 16 16 16 16 17 18 18 19 20 21 22 23 24 25 26 28 29 31 32 33 34 35 35 35 36 35 35 35 34 34 34 34
18 16 15 14 13 12 11 11 10 9 8 8 8 7 7 6 6 5 4 3 2 2 3 4 5 6 6 7 7 7 7 8 8 8 8 9 9 10 11 12 12 13 13 13 14 14 14 14 14 14 14 13 13 14 14 15 15 16 17 17 18 19 20 21 22 24 25 27 28 30 31 33 33 34 34 35 35 35 35 35 34 34 34 34 34
17 16 15 14 13 11 10 10 9 8 8 8 8 7 7 6 6 5 5 4 4 4 5 5 6 7 7 7 8 8 8 8 8 9 9 10 10 10 10 10 11 11 11 11 11 12 12 12 12 12 11 12 12 12 13 13 14 15 16 17 18 19 20 22 23 24 26 28 29 30 32 33 33 34 34 35 35 35 35 35 34 34 34 33 33
17 15 14 14 12 10 9 9 9 8 8 8 7 7 6 6 6 6 6 5 4 5 6 6 6 7 7 7 8 8 8 8 8 8 8 8 8 8 8 8 9 9 9 9 9 9 10 10 9 9 10 10 10 11 11 12 13 14 15 17 18 20 21 23 24 26 27 29 30 31 31 32 33 34 34 34 35 35 35 35 34 34 33 33 33
16 14 13 13 12 10 9 8 8 7 7 7 7 7 7 7 6 6 6 5 4 5 5 5 6 6 6 6 7 7 7 7 7 7 7 7 7 7 7 7 7 7 7 7 7 7 7 7 7 7 7 8 9 9 10 12 13 15 16 18 19 21 22 24 25 27 28 29 30 31 31 32 33 33 33 34 34 34 34 34 34 34 33 33 32
15 13 12 12 11 10 9 8 7 7 6 7 7 7 7 7 7 6 6 5 5 4 5 5 5 5 6 6 6 6 6 6 6 6 6 6 6 5 5 5 4 4 4 4 4 4 3 4 5 6 7 8 9 10 12 13 14 16 18 19 21 22 24 25 26 27 28 29 30 31 31 32 32 33 33 33 33 34 34 34 34 34 33 33 32
14 13 12 11 10 9 8 7 7 6 6 7 7 7 7 7 7 7 6 5 5 5 6 6 6 6 6 7 7 7 7 7 6 6 6 5 5 4 4 3 2 1 1 0 1 2 3 4 6 7 8 9 10 12 13 14 16 18 19 21 22 23 25 25 26 27 28 29 30 30 31 31 32 32 32 32 33 33 34 34 34 34 33 33 32
14 13 12 11 9 8 7 7 7 6 6 6 7 7 7 7 7 7 7 6 6 6 7 7 7 7 7 8 8 8 8 8 7 7 6 6 6 5 4 4 3 3 4 4 5 5 6 7 8 9 10 11 12 13 15 16 18 19 20 21 23 24 24 26 27 27 28 29 30 30 30 31 31 32 32 33 33 33 34 34 34 34 33 33 32
14 12 11 10 9 8 7 7 7 6 6 6 6 7 7 8 8 8 8 7 7 7 7 7 7 7 8 8 9 9 9 8 8 8 7 7 7 6 6 6 6 6 6 7 7 8 9 10 10 11 12 13 14 15 16 17 18 20 20 21 22 24 25 26 27 27 28 29 29 30 30 30 31 32 32 33 33 34 34 34 33 33 33 33 32
13 12 11 10 9 8 7 6 6 6 5 5 6 7 8 8 8 8 7 7 7 7 7 7 7 7 7 8 9 9 9 9 9 8 8 8 8 8 8 8 8 9 9 9 10 10 11 12 12 13 14 15 16 17 17 18 19 20 21 22 23 24 25 25 26 27 27 28 28 29 30 30 31 32 32 33 33 34 34 33 33 33 32 32 32
13 12 10 9 8 8 7 6 6 5 4 5 6 7 7 8 8 7 7 7 7 7 7 7 7 7 7 8 8 9 9 9 9 9 9 9 9 9 9 10 10 10 10 11 11 12 12 13 14 15 15 16 17 17 18 19 20 20 21 22 23 23 24 25 25 26 27 28 28 29 30 30 31 32 33 33 34 34 33 33 33 32 32 31 31
13 11 10 9 8 7 7 6 5 4 4 4 5 7 7 7 7 6 6 6 7 7 7 8 8 8 8 9 9 9 9 10 10 10 10 10 10 10 10 10 11 11 11 12 13 13 14 15 15 16 17 17 18 18 19 19 20 21 21 22 22 23 23 24 25 26 27 27 28 29 30 31 32 33 33 34 34 34 33 33 32 31 31 31 30
13 11 9 8 7 7 6 5 5 4 4 4 5 6 7 6 6 6 6 6 7 7 8 9 9 9 9 10 10 10 10 10 10 11 11 11 11 12 12 12 13 13 13 14 14 15 16 16 17 17 18 18 18 19 19 19 20 20 21 21 22 23 24 25 26 26 27 28 29 30 31 32 33 34 34 35 34 34 33 32 32 31 30 30 30
Wind_Direction
273 272 270 269 269 268 268 268 268 268 268 267 266 265 264 264 264 264 264 264 263 262 261 261 260 259 259 259 258 258 259 259 258 257 256 255 254 254 254 254 254 254 254 253 253 254 253 252 251 250 251 251 252 253 254 254 255 255 256 256 257 257 257 257 257 258 258 260 261 262 263 262 262 263 263 263 263 263 263 263 263 262 262 261 261
274 273 273 272 271 270 269 268 267 266 266 265 265 264 264 263 262 262 262 263 263 263 262 262 262 262 261 261 260 260 260 260 259 259 258 257 256 256 255 255 255 255 255 254 253 253 254 253 252 252 251 252 252 253 253 254 255 255 256 256 257 257 258 258 258 258 259 260 261 262 263 263 263 263 263 263 263 263 263 263 263 263 263 262 261
275 274 274 274 273 272 271 270 268 267 265 264 263 262 262 261 261 261 261 261 261 261 261 261 261 261 261 261 261 260 260 259 259 259 258 258 257 256 256 256 257 257 257 257 256 255 255 255 255 255 254 253 254 254 254 254 254 255 256 257 257 258 258 258 259 259 259 260 261 262 263 263 263 264 264 264 263 263 262 262 262 262 262 262 261
277 276 275 274 273 273 273 272 271 269 268 266 264 263 261 260 260 260 260 260 260 260 259 259 259 259 259 259 259 259 258 258 258 258 258 257 257 257 256 256 256 257 258 258 258 258 257 258 258 258 257 255 255 255 255 255 254 254 255 256 257 258 259 259 259 259 259 259 260 261 262 263 263 263 264 264 263 263 262 261 261 261 261 262 261
277 277 276 276 275 274 273 272 271 270 270 269 267 266 264 263 262 260 260 259 259 259 259 259 259 258 258 257 257 257 257 257 257 257 257 257 257 257 256 255 255 256 257 257 258 259 259 260 260 260 259 257 256 255 256 256 255 254 255 256 257 258 259 259 259 260 259 259 259 260 261 262 263 263 263 263 263 263 262 262 261 261 261 261 261
276 275 275 275 275 274 274 273 272 271 270 270 269 268 266 265 265 264 262 261 261 260 260 260 259 259 258 258 257 257 257 257 257 257 257 257 256 256 255 255 254 254 255 256 257 258 258 259 260 261 260 259 258 257 257 256 256 256 256 256 256 257 257 258 259 259 259 259 259 259 260 261 261 262 263 263 263 263 262 262 262 261 261 261 261
279 277 275 274 274 274 274 274 273 273 273 272 270 269 268 267 266 265 264 263 263 262 262 261 261 260 260 259 258 258 257 258 258 258 257 257 256 256 255 255 254 254 254 255 256 257 257 258 259 260 261 261 260 260 259 259 258 258 257 256 256 256 256 257 257 257 258 258 258 258 259 259 261 261 262 262 262 262 261 261 261 261 261 261 261
285 283 280 278 276 275 274 273 273 273 273 272 272 271 269 269 267 266 265 265 265 265 264 264 263 262 262 261 260 259 258 258 257 257 257 257 257 257 257 256 255 254 253 254 255 256 256 257 258 260 261 261 261 261 261 260 260 259 258 257 257 256 256 255 255 256 256 257 258 258 258 259 260 261 261 262 262 261 260 260 260 261 261 262 262
289 287 285 283 281 279 276 275 274 273 272 272 271 271 270 269 268 267 267 266 266 266 265 265 265 264 264 263 262 260 259 257 256 256 256 257 257 257 257 257 256 255 253 253 254 255 255 256 257 258 259 259 260 260 261 261 260 259 258 257 257 256 255 254 254 254 255 256 257 258 258 259 259 260 260 260 260 259 259 259 260 260 261 262 262
290 289 288 287 285 283 280 278 276 274 273 272 272 272 271 271 270 269 268 267 266 266 265 264 264 264 263 263 262 261 259 258 256 255 255 256 256 256 256 256 256 255 254 253 253 254 254 254 255 256 257 258 258 259 259 259 258 257 257 256 255 255 255 255 255 255 255 255 256 257 258 258 258 259 259 259 258 258 259 259 260 260 261 262 262
289 289 289 288 286 284 282 280 278 276 275 274 274 274 274 273 273 272 272 271 270 268 267 266 265 264 263 262 261 261 260 259 258 257 255 254 254 254 253 254 254 254 254 254 253 253 253 253 254 254 255 255 256 256 257 257 256 256 255 255 255 254 255 255 255 255 255 255 255 255 255 256 256 257 257 258 258 259 260 260 260 260 260 260 260
289 288 288 287 286 284 282 279 277 276 276 276 276 276 275 275 276 276 276 275 273 272 271 270 269 267 266 264 263 262 262 261 260 259 257 254 253 252 251 251 251 251 251 251 250 250 250 251 252 253 253 253 254 254 254 254 254 254 254 254 254 254 254 254 254 254 254 254 253 253 253 253 254 255 256 257 258 260 261 261 260 260 260 259 258
289 288 288 287 286 283 279 276 276 276 276 275 275 275 276 276 277 278 277 276 276 275 274 273 273 271 270 268 266 264 262 261 261 260 258 256 253 251 250 249 249 248 248 247 246 245 246 248 250 251 251 252 252 252 252 252 252 252 252 253 253 253 253 253 253 253 252 252 252 252 252 252 253 254 255 257 259 260 260 260 260 259 258 258 257
291 290 290 288 284 281 279 277 277 276 275 275 275 275 276 276 276 276 275 275 275 275 275 275 274 274 272 270 268 265 261 259 258 257 257 256 254 251 249 248 247 246 245 245 244 244 245 246 247 248 249 250 250 250 251 251 251 251 251 251 251 252 252 252 252 251 251 251 251 252 252 252 253 254 256 258 259 259 259 259 258 257 256 256 256
295 294 292 289 285 282 281 281 280 279 278 278 278 277 277 276 276 275 274 274 274 275 275 275 275 274 273 271 268 265 260 256 253 251 252 252 252 251 248 245 243 243 242 242 242 242 243 245 245 246 247 248 248 249 249 250 250 250 250 250 250 251 251 250 250 250 250 251 251 251 252 253 254 256 257 258 258 257 257 256 255 255 255 256 257
299 296 292 288 286 285 284 283 283 282 282 281 280 279 278 277 277 276 276 276 276 276 276 277 277 276 273 270 267 263 257 252 248 245 245 247 248 249 247 242 238 238 238 239 240 240 242 244 245 244 246 246 247 248 248 249 250 250 249 249 249 250 250 249 248 249 250 251 251 251 253 254 255 255 256 256 255 255 254 254 253 254 255 256 258
302 297 292 290 289 288 286 285 284 284 283 283 282 282 281 281 280 280 279 279 278 278 279 279 279 277 274 271 268 264 258 253 248 243 242 243 244 245 245 241 237 235 235 236 238 239 241 244 245 244 245 246 247 247 248 248 249 248 248 248 248 248 248 247 248 249 250 250 251 252 253 254 254 254 254 254 254 254 253 253 253 255 256 257 258
304 298 295 294 293 290 288 287 287 287 286 286 285 285 285 284 284 284 283 282 281 281 281 281 280 278 275 273 270 267 262 258 253 246 240 239 239 240 242 241 237 236 236 236 238 239 241 244 246 246 246 247 247 248 248 247 247 247 247 247 247 247 247 247 248 249 250 250 250 251 252 253 253 253 253 253 253 253 253 253 255 256 256 256 258
305 302 300 298 295 292 291 290 290 290 289 288 287 287 286 286 286 285 285 284 284 283 282 281 280 278 276 274 270 266 262 258 254 248 240 236 235 236 237 238 237 236 237 238 239 240 242 244 246 246 247 247 247 248 248 246 245 245 245 245 246 247 247 247 248 248 248 248 248 248 249 250 252 252 252 251 251 252 253 255 256 256 256 257 259
310 308 305 302 298 295 294 294 293 292 291 290 289 287 285 285 285 285 284 284 283 282 280 279 278 276 275 271 267 264 260 256 252 248 242 238 236 236 236 237 237 237 238 239 241 242 243 245 247 247 248 248 248 249 248 246 244 244 244 244 245 246 246 246 246 246 246 247 247 247 248 248 250 251 251 250 251 252 253 254 255 256 258 260 262
315 312 309 305 301 298 297 296 294 292 291 290 287 285 284 284 284 284 283 283 281 279 277 276 275 273 271 268 265 262 259 256 253 250 245 241 240 239 239 240 240 241 241 242 243 244 244 245 247 247 248 248 248 248 248 246 245 244 244 243 243 244 245 245 245 245 245 245 245 246 247 247 248 249 250 250 251 251 252 253 255 258 260 262 264
316 312 309 305 302 301 300 297 295 293 291 289 286 285 285 285 286 285 283 282 280 278 276 275 273 271 269 267 264 263 261 258 255 253 251 248 246 244 243 243 244 244 243 244 244 245 245 245 247 247 247 247 246 246 247 246 245 243 242 242 242 244 244 244 243 243 244 244 245 246 246 247 248 248 249 249 249 250 252 254 257 259 261 263 265
315 313 310 308 307 305 302 299 297 295 293 290 288 288 288 288 288 287 284 283 281 279 276 274 272 270 269 267 266 265 264 262 260 258 257 254 253 251 250 249 248 248 247 247 246 247 247 247 247 247 246 246 246 245 245 245 243 242 241 241 241 242 242 242 242 243 244 245 246 246 246 246 247 247 247 248 249 251 253 256 258 260 262 264 265
317 315 314 313 311 308 305 303 300 298 295 293 292 293 293 293 292 290 288 285 281 278 275 273 271 270 270 269 269 267 266 264 262 260 258 257 256 255 254 253 253 252 251 249 249 249 249 249 248 247 245 244 244 244 245 245 244 242 241 240 240 241 242 243 244 244 244 244 245 245 245 245 245 245 247 249 251 254 255 257 259 261 262 264 265
320 320 319 317 315 313 310 307 304 301 299 298 297 298 299 298 297 295 292 286 281 277 274 273 274 274 274 274 273 271 268 266 263 260 258 256 255 255 254 254 254 253 252 251 251 250 250 249 248 246 243 242 242 242 243 243 241 239 238 239 240 241 242 243 243 243 242 242 242 242 242 242 243 245 248 251 254 256 258 259 261 262 263 263 265
324 324 322 321 319 318 315 311 308 305 304 303 303 303 302 301 299 295 291 287 284 283 282 282 282 282 281 279 277 274 271 267 264 261 258 256 255 254 253 253 252 252 251 251 250 248 247 247 245 244 242 240 239 238 238 236 235 235 237 239 240 241 241 240 239 239 239 239 239 240 240 242 245 248 251 254 256 258 259 261 262 263 264 265 266
329 327 324 323 322 321 318 315 312 309 308 309 308 306 303 300 297 294 294 295 296 295 294 292 290 289 287 284 281 277 274 271 268 265 262 258 255 252 250 249 248 247 246 246 245 244 243 242 242 240 238 237 236 235 234 234 234 235 236 236 237 236 236 235 235 235 236 236 238 240 242 245 249 251 254 256 258 259 260 261 263 264 266 267 268
333 329 326 325 325 323 321 318 315 313 313 313 311 306 303 301 302 305 308 306 303 301 298 296 295 293 290 286 283 280 277 275 273 269 265 260 255 251 247 244 242 241 241 241 240 240 240 239 237 236 234 233 233 233 233 233 233 232 232 232 232 232 232 232 233 233 235 237 240 243 246 249 251 253 255 257 259 260 261 263 264 265 267 268 269
335 330 326 326 326 325 324 321 318 317 317 315 312 308 307 311 315 317 315 310 306 303 301 299 297 294 289 285 282 279 278 276 274 271 267 262 255 250 245 241 240 239 239 239 239 238 237 235 234 233 232 232 232 232 231 230 229 229 229 228 229 229 230 232 233 235 238 241 244 247 249 251 253 255 257 258 260 262 263 265 266 267 268 268 269
334 329 328 328 328 328 327 324 321 320 319 317 315 315 319 324 323 320 314 310 307 305 302 300 297 294 288 284 280 277 275 273 270 267 265 260 255 250 246 242 240 239 238 237 236 235 234 233 232 232 231 231 231 230 229 228 227 227 227 227 228 230 231 234 236 239 242 244 246 249 251 254 256 258 259 261 262 263 265 266 267 268 268 269 269
334 331 331 332 332 332 331 328 326 325 323 321 323 327 331 329 324 318 312 308 305 303 301 298 295 290 285 280 277 273 269 267 264 261 259 256 252 248 244 241 239 237 236 235 234 233 233 232 232 231 231 230 229 228 227 226 226 226 227 228 230 232 234 237 239 241 244 246 249 251 254 256 258 260 262 263 264 265 266 267 268 269 269 270 270
336 335 335 336 336 336 335 333 332 330 328 328 333 336 334 327 321 315 310 305 301 299 297 294 288 281 275 273 271 267 263 260 256 253 251 248 244 240 238 236 235 235 234 234 233 232 232 231 230 229 228 227 226 225 225 226 226 228 230 231 233 235 237 239 242 244 247 249 252 254 256 258 260 262 263 265 266 267 269 269 270 271 272 272 273
339 339 339 339 340 340 339 338 337 335 335 338 341 339 331 322 316 312 307 302 298 297 296 291 280 274 269 266 261 256 252 248 245 241 239 237 236 235 234 232 230 229 228 228 228 228 227 227 226 225 225 225 225 225 227 228 229 231 232 234 236 238 240 243 245 248 251 253 255 257 259 260 262 264 265 267 268 269 270 271 272 273 274 274 275
343 342 341 342 343 343 342 341 340 342 346 347 344 337 328 319 315 313 309 303 299 298 295 281 266 263 258 251 245 241 239 237 235 234 233 232 231 230 228 226 224 223 222 223 223 223 223 224 224 224 224 225 226 227 228 229 230 232 234 236 239 241 244 247 250 252 255 257 258 260 261 263 264 266 267 268 270 271 272 273 274 275 275 275 275
345 344 344 346 346 346 345 343 345 352 356 352 344 336 329 324 324 324 319 311 307 305 295 201 200 210 216 218 218 220 224 231 234 235 235 234 231 228 225 223 222 222 222 221 221 221 222 222 222 222 223 223 224 226 227 229 232 234 237 241 244 246 249 252 254 256 258 260 261 262 264 265 267 268 270 271 272 273 274 275 275 275 275 275 274
347 346 348 349 349 349 349 349 354 359 359 353 345 338 335 335 337 339 335 324 316 318 19 136 157 165 171 177 185 194 203 211 220 228 231 231 230 229 228 228 227 226 224 223 221 220 219 217 217 218 219 221 224 226 229 233 236 240 244 246 249 252 254 255 257 259 260 262 264 265 267 268 270 271 272 274 274 275 276 276 276 276 276 275 274
349 349 350 351 351 352 355 359 3 3 359 354 348 343 345 350 352 353 349 337 328 340 55 101 113 128 134 141 152 167 176 184 191 199 208 215 220 224 226 225 224 222 219 218 216 215 214 215 215 217 220 224 228 231 235 239 242 245 248 250 252 254 256 258 260 262 264 265 267 269 270 272 273 274 275 276 277 277 278 278 278 277 277 276 276
353 352 352 352 353 357 3 8 10 8 3 358 355 357 4 8 7 3 359 348 343 359 63 97 102 111 122 129 138 148 157 166 175 183 191 198 203 207 210 210 210 211 211 211 212 213 215 218 220 223 225 229 232 236 239 242 245 247 249 252 254 256 259 261 263 266 268 270 272 273 274 275 276 277 277 278 278 279 279 278 278 278 278 277 277
356 355 355 355 358 4 11 14 14 13 10 7 8 17 22 21 17 15 14 10 9 25 80 105 111 117 124 130 136 142 146 150 157 167 179 189 194 197 200 202 205 208 210 211 214 217 220 223 226 228 230 232 235 238 241 243 246 249 252 255 258 260 263 266 269 271 273 274 275 276 277 277 278 279 279 279 280 279 279 279 278 278 279 279 279
358 358 358 360 3 10 16 17 17 18 19 19 25 33 32 28 30 34 37 40 49 68 96 111 118 124 129 135 141 148 152 156 160 164 172 182 191 197 201 205 207 210 212 215 218 221 224 226 228 229 230 232 235 238 242 246 249 253 256 260 264 267 270 273 274 276 277 277 278 278 279 279 280 280 280 280 280 280 279 279 279 279 279 279 279
1 2 3 4 7 15 21 19 17 22 27 31 37 40 38 38 43 49 56 61 72 87 98 107 115 122 130 135 141 146 152 159 164 169 173 179 186 193 199 204 207 209 211 215 218 221 223 224 226 227 230 233 237 242 246 251 256 261 266 270 273 276 277 278 279 280 280 280 280 280 280 280 281 281 280 280 280 279 279 280 280 280 280 279 279
5 6 7 6 7 15 22 19 16 22 33 40 43 43 46 49 52 54 61 67 74 89 98 105 112 121 129 135 140 144 148 152 158 164 169 174 180 186 191 196 201 204 207 210 214 218 222 224 227 230 234 239 245 251 258 264 270 274 277 279 280 281 282 283 283 283 282 282 281 281 281 281 280 280 280 279 279 279 280 280 280 280 280 280 280
8 10 11 7 5 12 21 18 14 19 33 45 49 48 50 53 55 56 61 65 72 85 97 103 110 117 123 126 131 134 137 140 145 151 156 162 170 178 184 189 193 198 203 207 212 218 223 230 236 244 251 259 267 274 278 281 282 283 284 285 285 286 285 284 284 283 282 282 282 281 281 280 280 280 280 280 280 280 280 280 281 281 281 281 281
10 12 13 9 4 7 16 18 11 11 24 40 51 55 56 58 58 56 56 58 64 74 86 92 95 101 105 109 113 116 118 123 129 136 142 147 152 159 166 173 180 188 196 203 211 224 241 256 268 276 284 288 290 291 290 290 290 290 290 289 289 287 285 284 283 283 282 282 282 282 282 281 281 281 281 281 281 281 281 281 281 282 282 282 282
11 13 14 10 4 4 12 15 9 7 17 33 46 55 58 60 61 57 52 51 56 64 73 80 83 87 91 94 97 99 101 103 106 109 112 114 116 118 120 123 125 134 142 306 310 311 307 304 302 302 301 300 298 297 296 295 294 293 291 289 288 286 286 285 285 284 284 284 283 283 284 284 284 284 284 284 283 283 283 282 283 283 283 284 284
13 14 14 10 3 3 11 15 9 6 15 29 40 50 57 61 62 60 55 55 60 67 74 78 82 85 87 89 92 94 94 94 93 92 91 89 86 80 70 59 42 24 9 356 344 335 326 319 315 311 308 305 302 300 298 296 293 291 289 288 288 287 287 287 287 286 286 286 286 286 286 286 287 287 286 286 285 284 284 284 284 285 285 285 286
15 15 12 7 2 3 14 19 14 9 14 27 37 48 58 64 66 65 64 65 70 75 81 85 87 90 92 93 92 89 87 82 78 74 68 61 55 47 37 27 16 5 357 349 341 334 328 322 317 313 309 305 302 299 296 294 292 291 291 290 290 289 289 288 288 288 287 288 288 288 289 289 289 288 288 287 287 287 287 287 287 288 288 288 288
16 15 11 6 2 7 18 24 19 16 20 30 41 55 65 70 71 71 72 75 77 78 81 85 86 87 89 88 85 80 75 68 62 56 48 41 34 26 18 10 2 355 349 342 335 329 324 318 314 310 306 303 301 299 298 297 297 296 295 294 293 291 291 290 290 290 290 290 291 291 291 291 290 290 290 290 289 289 290 290 290 291 291 290 290
17 15 12 6 4 9 20 26 24 27 35 42 51 65 73 74 74 74 77 80 79 76 74 75 73 70 70 71 71 68 63 56 49 42 35 27 20 13 6 360 353 346 340 334 328 323 318 315 311 309 307 306 306 305 304 303 302 301 299 297 295 294 294 294 294 294 294 294 294 294 293 293 293 292 292 292 292 292 293 293 293 294 293 292 291
17 17 14 9 6 11 20 26 28 34 44 54 64 75 80 78 75 77 78 77 73 69 65 63 58 53 51 52 53 51 48 42 35 29 22 16 10 4 358 352 346 340 335 329 324 320 317 315 314 314 314 314 313 311 309 308 305 303 301 300 299 299 298 298 297 297 297 296 297 297 297 296 296 295 295 295 295 296 296 297 297 297 296 294 293
17 17 15 12 12 15 22 30 34 35 43 59 74 82 85 81 76 74 75 71 61 55 52 49 43 38 37 37 37 36 33 29 23 18 13 8 2 357 351 346 341 336 331 327 324 322 322 322 322 322 320 319 316 313 311 308 306 305 304 303 303 302 301 300 300 300 300 300 300 300 299 299 299 298 298 299 299 299 300 300 299 298 297 295 293
Height
9996 9996 9995 9996 9995 9996 9996 9997 9998 9998 9998 9999 10000 10001 10001 10002 10002 10003 10004 10005 10006 10008 10010 10012 10013 10016 10019 10021 10024 10026 10026 10027 10029 10031 10035 10040 10044 10047 10050 10052 10054 10056 10060 10063 10065 10067 10071 10075 10078 10081 10085 10086 10086 10090 10094 10097 10099 10101 10103 10105 10107 10109 10110 10111 10113 10114 10113 10109 10108 10109 10113 10119 10123 10124 10124 10128 10134 10139 10142 10145 10145 10145 10146 10147 10147
9986 9984 9984 9984 9985 9985 9986 9987 9988 9988 9988 9988 9989 9989 9989 9989 9990 9991 9992 9993 9993 9995 9997 9999 10001 10003 10005 10007 10009 10011 10012 10013 10014 10016 10020 10025 10030 10033 10036 10038 10040 10042 10045 10049 10051 10053 10055 10058 10062 10066 10070 10071 10072 10077 10081 10084 10086 10087 10088 10090 10092 10093 10095 10096 10098 10100 10101 10100 10097 10095 10097 10101 10105 10107 10109 10113 10119 10124 10128 10130 10130 10130 10130 10131 10132
9977 9976 9974 9974 9974 9973 9973 9974 9976 9976 9977 9978 9978 9978 9978 9978 9979 9980 9981 9981 9982 9984 9986 9987 9989 9990 9992 9994 9995 9997 9998 9999 10000 10002 10005 10010 10013 10018 10023 10026 10027 10030 10033 10035 10037 10039 10041 10045 10048 10052 10056 10057 10059 10064 10069 10072 10074 10074 10075 10076 10077 10079 10081 10082 10084 10086 10089 10089 10087 10085 10084 10085 10088 10091 10093 10098 10103 10109 10114 10116 10116 10115 10114 10114 10116
9968 9967 9966 9965 9964 9963 9962 9962 9963 9963 9964 9965 9966 9968 9968 9969 9969 9970 9970 9971 9971 9972 9974 9975 9977 9978 9980 9982 9982 9983 9985 9985 9987 9989 9993 9996 9999 10002 10008 10012 10015 10018 10020 10022 10023 10025 10029 10033 10036 10038 10041 10044 10048 10052 10056 10058 10060 10060 10061 10063 10064 10066 10068 10068 10070 10073 10076 10077 10076 10074 10072 10072 10073 10075 10077 10081 10086 10093 10098 10101 10101 10100 10099 10099 10102
9960 9959 9957 9956 9955 9954 9953 9953 9953 9953 9953 9954 9955 9956 9957 9958 9959 9960 9961 9961 9961 9961 9963 9964 9966 9967 9969 9971 9971 9972 9973 9974 9975 9978 9981 9984 9986 9989 9994 9998 10002 10005 10007 10009 10011 10013 10016 10020 10022 10023 10027 10031 10035 10039 10041 10043 10045 10047 10049 10051 10052 10054 10054 10056 10058 10061 10063 10064 10063 10063 10061 10060 10060 10061 10063 10066 10071 10077 10082 10085 10085 10084 10084 10085 10088
9952 9952 9950 9948 9946 9945 9944 9943 9943 9943 9944 9944 9945 9945 9946 9947 9948 9949 9949 9950 9949 9950 9952 9953 9955 9957 9958 9960 9961 9962 9963 9964 9965 9967 9969 9971 9973 9977 9980 9984 9989 9993 9995 9997 9999 10000 10004 10008 10008 10010 10014 10018 10021 10024 10026 10028 10031 10035 10037 10039 10040 10041 10042 10044 10046 10048 10049 10050 10050 10051 10050 10047 10047 10049 10051 10053 10058 10063 10067 10069 10069 10068 10069 10071 10074
9942 9942 9942 9940 9939 9938 9936 9934 9933 9933 9934 9934 9935 9935 9936 9937 9937 9938 9938 9938 9938 9939 9940 9942 9944 9946 9947 9949 9951 9952 9953 9955 9956 9957 9958 9960 9961 9964 9968 9972 9976 9981 9983 9984 9986 9989 9992 9995 9996 9997 10001 10005 10007 10009 10011 10015 10019 10022 10024 10026 10027 10029 10031 10032 10033 10035 10036 10037 10038 10039 10038 10036 10036 10037 10038 10040 10045 10050 10052 10053 10053 10053 10054 10057 10062
9933 9932 9932 9931 9931 9930 9928 9927 9926 9925 9924 9924 9924 9925 9926 9926 9927 9927 9928 9929 9928 9928 9930 9931 9933 9935 9937 9938 9940 9942 9944 9945 9945 9945 9946 9949 9951 9953 9957 9961 9964 9968 9971 9973 9975 9978 9981 9983 9985 9986 9989 9992 9994 9996 9998 10003 10007 10009 10011 10013 10014 10016 10018 10019 10021 10022 10023 10024 10025 10026 10027 10027 10026 10026 10027 10030 10034 10037 10038 10037 10039 10040 10042 10045 10049
9925 9924 9923 9923 9922 9921 9920 9919 9918 9917 9916 9915 9915 9915 9916 9917 9917 9918 9919 9920 9919 9919 9920 9922 9923 9925 9927 9928 9930 9931 9933 9934 9934 9935 9936 9939 9942 9944 9947 9950 9952 9956 9960 9962 9964 9967 9970 9972 9974 9975 9978 9981 9983 9985 9988 9991 9994 9996 9999 10000 10002 10004 10005 10006 10008 10010 10012 10013 10014 10014 10016 10017 10015 10014 10016 10019 10022 10024 10024 10024 10028 10030 10031 10034 10037
9919 9918 9916 9916 9915 9913 9912 9911 9909 9908 9907 9907 9907 9907 9908 9908 9908 9909 9910 9911 9911 9911 9912 9913 9915 9916 9918 9919 9920 9920 9922 9922 9923 9926 9929 9931 9933 9935 9937 9939 9941 9944 9948 9951 9954 9957 9959 9961 9962 9964 9967 9970 9972 9975 9977 9980 9982 9984 9986 9988 9990 9992 9992 9993 9996 9999 10001 10003 10003 10004 10006 10005 10004 10003 10005 10007 10009 10012 10013 10014 10018 10021 10022 10025 10026
9914 9912 9911 9910 9909 9907 9905 9903 9901 9900 9899 9898 9899 9899 9899 9899 9899 9900 9901 9902 9902 9902 9903 9904 9906 9907 9908 9909 9910 9910 9911 9912 9914 9917 9921 9922 9924 9926 9928 9930 9931 9934 9938 9941 9944 9946 9947 9949 9950 9953 9956 9959 9961 9964 9966 9969 9971 9973 9975 9977 9979 9980 9981 9983 9986 9988 9990 9992 9993 9995 9995 9994 9992 9992 9994 9995 9998 10002 10004 10005 10008 10011 10012 10015 10016
9909 9907 9906 9904 9903 9902 9899 9896 9894 9892 9891 9891 9891 9891 9891 9890 9890 9891 9892 9892 9892 9892 9893 9894 9895 9897 9899 9900 9900 9902 9902 9903 9905 9908 9910 9912 9915 9917 9919 9921 9923 9926 9928 9931 9934 9936 9936 9937 9939 9942 9945 9948 9951 9954 9956 9958 9960 9962 9964 9966 9968 9970 9971 9973 9975 9977 9979 9981 9983 9984 9983 9983 9982 9983 9984 9986 9990 9994 9995 9995 9998 10000 10002 10004 10004
9903 9901 9900 9899 9897 9895 9893 9890 9888 9887 9886 9885 9885 9884 9884 9883 9884 9884 9884 9883 9883 9883 9884 9885 9886 9888 9889 9890 9891 9892 9894 9895 9897 9898 9899 9901 9904 9907 9909 9912 9915 9917 9919 9921 9924 9926 9927 9928 9929 9932 9935 9937 9941 9944 9946 9948 9950 9951 9954 9956 9958 9959 9961 9963 9965 9967 9969 9971 9973 9973 9972 9973 9973 9974 9975 9978 9982 9984 9984 9985 9988 9990 9992 9992 9992
9898 9895 9894 9893 9890 9888 9885 9883 9882 9881 9880 9879 9879 9879 9878 9878 9878 9878 9877 9876 9876 9875 9876 9876 9878 9879 9880 9881 9882 9883 9884 9886 9888 9889 9890 9892 9894 9897 9900 9903 9906 9908 9910 9912 9914 9916 9917 9918 9921 9924 9926 9929 9932 9935 9937 9938 9940 9942 9944 9947 9948 9949 9951 9953 9955 9958 9960 9962 9964 9963 9963 9963 9964 9965 9967 9970 9974 9975 9975 9977 9978 9980 9982 9981 9980
9892 9890 9887 9885 9883 9881 9878 9876 9875 9874 9873 9873 9873 9872 9872 9872 9871 9871 9870 9869 9869 9868 9868 9869 9870 9871 9872 9873 9874 9874 9876 9878 9880 9881 9882 9884 9886 9889 9892 9895 9898 9899 9901 9903 9905 9906 9907 9909 9913 9916 9918 9921 9924 9925 9927 9929 9931 9933 9935 9937 9939 9939 9941 9944 9946 9949 9952 9954 9954 9954 9954 9955 9956 9957 9959 9962 9965 9966 9967 9968 9968 9970 9972 9970 9970
9886 9884 9881 9879 9877 9874 9872 9869 9868 9867 9867 9866 9866 9866 9865 9865 9864 9863 9863 9862 9861 9861 9861 9861 9862 9863 9864 9865 9865 9866 9868 9870 9872 9874 9876 9877 9879 9882 9884 9887 9890 9891 9893 9895 9896 9898 9900 9902 9905 9908 9910 9913 9915 9916 9919 9922 9923 9924 9926 9928 9930 9931 9933 9936 9939 9941 9944 9944 9944 9945 9946 9947 9947 9948 9950 9953 9955 9956 9957 9958 9958 9960 9962 9961 9962
9880 9877 9875 9872 9871 9868 9866 9864 9862 9861 9861 9860 9860 9859 9858 9857 9857 9856 9855 9855 9854 9854 9854 9854 9855 9855 9855 9857 9857 9857 9859 9862 9864 9867 9869 9870 9872 9874 9875 9878 9881 9883 9885 9887 9888 9891 9893 9895 9898 9901 9903 9905 9906 9908 9911 9914 9915 9916 9918 9920 9922 9924 9926 9929 9931 9934 9935 9935 9936 9938 9939 9938 9938 9940 9943 9944 9946 9947 9948 9949 9950 9952 9954 9954 9954
9873 9871 9868 9867 9865 9863 9860 9859 9857 9856 9855 9855 9853 9852 9851 9850 9849 9849 9848 9848 9848 9848 9847 9848 9848 9847 9848 9849 9850 9850 9851 9853 9856 9859 9861 9863 9865 9867 9867 9869 9873 9876 9877 9880 9882 9884 9886 9888 9890 9893 9895 9896 9898 9900 9904 9906 9907 9909 9910 9912 9915 9917 9919 9923 9925 9926 9926 9926 9929 9930 9930 9930 9930 9932 9935 9936 9938 9938 9939 9940 9943 9945 9946 9946 9947
9867 9865 9864 9862 9860 9858 9855 9853 9852 9850 9850 9849 9848 9847 9846 9845 9844 9843 9842 9842 9842 9842 9842 9841 9841 9841 9841 9842 9843 9843 9845 9846 9848 9850 9853 9856 9858 9858 9859 9861 9865 9867 9869 9872 9875 9877 9879 9881 9883 9884 9886 9888 9891 9893 9896 9897 9899 9901 9903 9906 9909 9911 9913 9916 9916 9916 9917 9919 9921 9921 9922 9922 9923 9925 9927 9929 9930 9931 9931 9933 9935 9936 9937 9938 9939
9861 9860 9858 9857 9855 9853 9851 9849 9847 9846 9845 9844 9844 9842 9841 9840 9839 9839 9838 9837 9837 9837 9836 9836 9835 9835 9835 9836 9837 9837 9839 9840 9842 9843 9846 9849 9850 9850 9851 9854 9857 9860 9863 9866 9868 9871 9873 9874 9875 9876 9878 9881 9884 9886 9888 9889 9891 9894 9897 9900 9903 9904 9906 9907 9908 9909 9910 9912 9913 9914 9914 9915 9915 9917 9920 9922 9923 9924 9925 9926 9927 9927 9929 9929 9930
9857 9855 9853 9852 9850 9848 9846 9844 9843 9842 9840 9840 9839 9838 9836 9836 9835 9835 9834 9833 9832 9832 9831 9830 9830 9830 9830 9830 9831 9832 9833 9834 9836 9838 9840 9842 9843 9844 9846 9848 9851 9854 9857 9860 9861 9863 9865 9866 9867 9870 9872 9875 9877 9879 9880 9882 9885 9889 9892 9894 9896 9896 9898 9900 9901 9903 9903 9904 9905 9906 9907 9908 9909 9911 9913 9915 9917 9918 9918 9919 9920 9921 9922 9921 9921
9853 9851 9849 9847 9845 9844 9842 9840 9838 9837 9836 9835 9834 9833 9832 9831 9831 9830 9829 9828 9827 9826 9826 9825 9825 9824 9825 9825 9826 9826 9827 9829 9830 9832 9834 9836 9837 9839 9841 9843 9846 9849 9851 9853 9855 9856 9858 9860 9862 9865 9867 9869 9871 9873 9875 9877 9880 9884 9886 9888 9889 9889 9891 9893 9894 9895 9896 9897 9898 9899 9901 9903 9904 9905 9907 9908 9910 9910 9911 9913 9914 9915 9914 9914 9913
9848 9846 9845 9843 9841 9839 9837 9835 9833 9832 9832 9830 9829 9828 9827 9826 9826 9825 9824 9823 9822 9821 9821 9820 9820 9820 9820 9821 9822 9822 9823 9824 9825 9827 9829 9830 9831 9834 9836 9838 9841 9843 9845 9847 9848 9850 9851 9854 9857 9859 9862 9863 9865 9868 9870 9872 9875 9879 9881 9881 9881 9883 9884 9885 9887 9888 9890 9891 9893 9894 9896 9897 9898 9900 9900 9901 9903 9904 9906 9907 9908 9908 9907 9906 9905
9844 9842 9840 9838 9837 9835 9833 9831 9829 9828 9827 9826 9824 9823 9822 9821 9821 9820 9819 9818 9817 9817 9816 9816 9816 9816 9817 9817 9818 9819 9819 9820 9822 9823 9824 9825 9827 9829 9831 9833 9835 9837 9839 9841 9842 9844 9846 9849 9852 9854 9857 9859 9861 9863 9865 9867 9871 9873 9874 9873 9874 9876 9878 9880 9881 9883 9884 9886 9887 9889 9890 9892 9893 9893 9894 9895 9897 9899 9900 9901 9901 9901 9900 9899 9898
9840 9839 9837 9835 9833 9831 9829 9827 9826 9824 9823 9821 9820 9819 9818 9817 9816 9815 9815 9814 9814 9813 9813 9813 9812 9813 9813 9813 9814 9814 9815 9817 9818 9819 9821 9822 9823 9825 9826 9828 9830 9832 9834 9835 9837 9839 9841 9844 9847 9850 9852 9854 9856 9858 9860 9862 9865 9866 9866 9867 9869 9871 9873 9875 9877 9878 9879 9880 9882 9883 9885 9886 9886 9887 9888 9890 9892 9893 9893 9893 9893 9893 9892 9891 9890
9837 9835 9834 9832 9830 9828 9826 9824 9822 9820 9819 9818 9817 9816 9815 9814 9813 9812 9812 9811 9810 9810 9809 9809 9809 9809 9809 9810 9810 9810 9811 9813 9814 9815 9817 9818 9820 9821 9823 9824 9826 9828 9829 9831 9833 9835 9837 9840 9842 9845 9848 9850 9852 9853 9855 9857 9859 9861 9862 9864 9866 9867 9869 9871 9872 9873 9874 9875 9876 9877 9879 9880 9881 9883 9884 9885 9886 9886 9886 9885 9885 9884 9884 9883 9882
9834 9833 9831 9829 9827 9825 9823 9821 9819 9817 9816 9815 9814 9813 9812 9811 9810 9810 9809 9808 9807 9806 9805 9805 9805 9805 9806 9806 9806 9807 9808 9809 9810 9812 9813 9814 9816 9817 9819 9820 9822 9824 9825 9827 9829 9831 9833 9836 9838 9840 9843 9844 9846 9848 9850 9852 9855 9857 9859 9860 9861 9863 9864 9865 9867 9868 9869 9870 9871 9872 9874 9876 9877 9879 9879 9879 9879 9879 9878 9878 9877 9876 9875 9874 9874
9832 9830 9828 9826 9825 9823 9820 9818 9816 9815 9814 9813 9811 9810 9809 9808 9807 9806 9805 9804 9803 9803 9802 9802 9802 9803 9803 9803 9803 9804 9805 9805 9807 9808 9809 9811 9812 9814 9815 9817 9818 9820 9821 9823 9825 9827 9829 9832 9834 9836 9838 9840 9841 9843 9846 9848 9851 9853 9854 9855 9857 9858 9859 9860 9861 9862 9864 9865 9867 9869 9870 9872 9873 9873 9873 9873 9872 9871 9871 9871 9870 9869 9868 9867 9866
9829 9827 9825 9824 9822 9820 9818 9815 9814 9812 9811 9810 9809 9808 9807 9806 9804 9803 9802 9802 9801 9800 9800 9800 9800 9801 9801 9801 9801 9802 9802 9803 9804 9805 9806 9808 9809 9811 9812 9814 9815 9817 9818 9820 9822 9824 9826 9828 9830 9832 9834 9836 9838 9840 9842 9844 9846 9848 9849 9851 9852 9853 9854 9855 9857 9858 9860 9862 9864 9865 9866 9867 9867 9867 9866 9866 9865 9864 9864 9863 9863 9862 9862 9861 9860
9827 9824 9822 9821 9819 9817 9816 9814 9812 9810 9809 9808 9807 9806 9804 9803 9802 9801 9801 9800 9799 9799 9798 9798 9798 9799 9799 9799 9800 9800 9800 9801 9802 9803 9804 9805 9807 9808 9809 9811 9813 9814 9816 9818 9820 9822 9824 9826 9828 9829 9831 9833 9835 9836 9838 9840 9842 9843 9845 9846 9847 9849 9850 9852 9854 9856 9858 9859 9860 9860 9861 9861 9860 9860 9859 9859 9858 9858 9857 9857 9856 9856 9855 9854 9853
9824 9822 9820 9818 9817 9815 9814 9812 9810 9809 9807 9806 9805 9803 9802 9801 9800 9800 9799 9799 9798 9797 9797 9797 9797 9797 9798 9798 9798 9799 9799 9800 9801 9802 9803 9804 9805 9807 9808 9809 9811 9813 9814 9816 9818 9820 9822 9824 9825 9826 9828 9829 9831 9833 9834 9836 9837 9839 9841 9842 9844 9846 9848 9850 9852 9853 9854 9854 9855 9855 9855 9854 9854 9853 9853 9852 9852 9851 9851 9850 9850 9849 9848 9847 9846
9822 9820 9818 9816 9815 9813 9812 9810 9809 9808 9806 9804 9803 9801 9800 9800 9799 9799 9798 9798 9797 9797 9796 9796 9796 9796 9797 9797 9797 9798 9798 9799 9800 9801 9802 9803 9804 9805 9807 9808 9810 9811 9813 9815 9816 9818 9820 9821 9822 9824 9825 9826 9828 9829 9831 9833 9835 9837 9839 9841 9843 9844 9846 9847 9848 9848 9849 9849 9849 9849 9849 9848 9848 9847 9847 9846 9845 9845 9844 9844 9843 9842 9841 9840 9838
9821 9818 9816 9815 9813 9812 9811 9809 9808 9806 9805 9803 9801 9800 9800 9799 9798 9798 9797 9797 9796 9796 9796 9795 9795 9796 9796 9796 9797 9797 9798 9798 9799 9800 9801 9802 9803 9804 9806 9807 9809 9810 9811 9813 9814 9816 9817 9818 9820 9821 9822 9824 9826 9828 9829 9832 9834 9836 9837 9839 9840 9841 9842 9843 9843 9843 9843 9843 9843 9843 9843 9843 9842 9842 9841 9840 9839 9839 9838 9837 9836 9836 9835 9833 9831
9820 9817 9815 9814 9813 9811 9810 9808 9807 9805 9804 9802 9801 9800 9799 9799 9798 9797 9797 9796 9796 9796 9795 9795 9795 9795 9796 9796 9796 9797 9798 9798 9799 9800 9801 9802 9803 9804 9805 9806 9807 9808 9809 9811 9812 9814 9815 9817 9818 9820 9822 9823 9825 9827 9829 9831 9832 9834 9835 9836 9837 9837 9838 9838 9838 9838 9838 9838 9838 9838 9837 9837 9837 9836 9835 9834 9833 9833 9832 9832 9831 9829 9828 9827 9825
9819 9817 9815 9813 9812 9810 9809 9807 9806 9805 9803 9802 9801 9800 9799 9799 9798 9798 9797 9796 9796 9795 9795 9795 9795 9795 9795 9795 9796 9796 9797 9798 9799 9799 9800 9801 9802 9803 9804 9805 9806 9807 9808 9810 9811 9813 9815 9816 9818 9820 9822 9823 9825 9826 9828 9829 9830 9831 9832 9832 9833 9833 9833 9833 9833 9833 9833 9833 9833 9833 9832 9832 9831 9830 9829 9829 9828 9827 9826 9825 9824 9823 9822 9820 9819
9818 9816 9814 9812 9811 9810 9808 9807 9805 9804 9803 9802 9801 9800 9800 9799 9798 9797 9797 9797 9796 9796 9795 9795 9795 9796 9796 9796 9796 9796 9797 9797 9798 9799 9800 9801 9802 9803 9803 9805 9806 9807 9808 9810 9811 9813 9815 9816 9818 9820 9821 9822 9823 9824 9825 9826 9827 9827 9828 9828 9828 9828 9828 9828 9828 9828 9828 9828 9828 9828 9827 9826 9826 9825 9824 9823 9822 9821 9820 9819 9818 9817 9815 9813 9812
9817 9815 9813 9812 9811 9809 9808 9806 9805 9804 9803 9802 9801 9801 9800 9799 9798 9797 9797 9797 9796 9796 9795 9795 9796 9796 9796 9796 9796 9797 9797 9798 9798 9799 9800 9801 9802 9803 9804 9805 9807 9808 9809 9811 9812 9813 9814 9816 9817 9818 9819 9820 9821 9822 9822 9823 9824 9824 9824 9824 9824 9824 9824 9825 9825 9825 9824 9824 9824 9823 9822 9822 9821 9820 9819 9817 9816 9815 9814 9813 9811 9810 9808 9807 9805
9817 9815 9814 9812 9811 9809 9808 9806 9805 9804 9803 9803 9802 9801 9800 9799 9798 9798 9798 9797 9797 9796 9796 9796 9796 9796 9797 9797 9797 9798 9798 9799 9799 9800 9801 9802 9803 9804 9805 9806 9807 9808 9809 9811 9812 9813 9814 9815 9815 9816 9817 9818 9819 9819 9820 9820 9821 9821 9821 9821 9821 9821 9821 9821 9821 9821 9820 9820 9819 9818 9817 9816 9815 9814 9813 9812 9810 9809 9808 9806 9805 9804 9802 9801 9799
9817 9815 9814 9812 9811 9809 9808 9807 9806 9805 9804 9803 9802 9801 9800 9800 9799 9799 9798 9798 9798 9797 9797 9797 9797 9797 9798 9798 9798 9799 9799 9800 9800 9801 9802 9803 9804 9805 9805 9806 9807 9808 9809 9810 9811 9812 9812 9813 9814 9815 9815 9816 9816 9817 9817 9818 9818 9818 9818 9818 9818 9818 9818 9818 9818 9817 9817 9816 9815 9814 9813 9811 9810 9809 9807 9806 9804 9803 9801 9800 9799 9798 9796 9794 9793
9817 9815 9814 9813 9811 9810 9809 9808 9807 9806 9805 9804 9803 9802 9801 9801 9800 9799 9799 9799 9798 9798 9798 9798 9798 9798 9799 9799 9799 9800 9800 9801 9801 9802 9802 9803 9804 9805 9805 9806 9807 9808 9808 9809 9810 9810 9811 9812 9812 9813 9813 9814 9814 9815 9815 9815 9815 9815 9816 9816 9815 9815 9815 9815 9814 9814 9813 9812 9810 9809 9808 9806 9805 9803 9801 9800 9798 9796 9795 9794 9793 9791 9790 9788 9787
9817 9816 9814 9813 9812 9811 9810 9809 9808 9807 9806 9805 9804 9803 9802 9802 9801 9800 9800 9800 9800 9800 9799 9799 9799 9800 9800 9800 9800 9801 9801 9802 9802 9802 9803 9803 9804 9804 9805 9806 9806 9807 9807 9808 9809 9809 9810 9810 9811 9811 9812 9812 9813 9813 9813 9813 9813 9813 9813 9813 9812 9812 9811 9811 9810 9809 9808 9807 9806 9804 9803 9801 9799 9797 9796 9794 9792 9791 9789 9788 9787 9785 9784 9782 9781
9818 9816 9815 9814 9813 9812 9811 9810 9809 9808 9807 9806 9805 9805 9804 9803 9802 9802 9802 9801 9801 9801 9801 9801 9801 9801 9801 9802 9802 9802 9802 9803 9803 9803 9803 9804 9804 9804 9805 9805 9806 9806 9807 9807 9808 9808 9809 9809 9810 9810 9811 9811 9811 9811 9811 9811 9811 9810 9810 9809 9809 9808 9807 9806 9806 9804 9803 9802 9800 9799 9797 9795 9793 9792 9790 9788 9786 9785 9783 9782 9781 9779 9778 9776 9774
9818 9817 9815 9814 9814 9813 9812 9811 9810 9810 9808 9808 9807 9806 9805 9805 9804 9804 9803 9803 9803 9802 9802 9802 9802 9803 9803 9803 9803 9803 9803 9803 9804 9804 9804 9804 9805 9805 9805 9805 9806 9806 9806 9807 9807 9808 9808 9809 9809 9809 9810 9809 9809 9809 9809 9808 9808 9807 9807 9806 9805 9804 9803 9802 9801 9800 9798 9797 9795 9793 9792 9790 9788 9786 9784 9783 9781 9779 9777 9776 9774 9773 9771 9770 9768
9819 9818 9816 9816 9815 9814 9813 9812 9812 9811 9810 9809 9808 9808 9807 9806 9806 9805 9805 9804 9804 9804 9803 9803 9803 9804 9804 9804 9804 9804 9804 9804 9804 9804 9805 9805 9805 9805 9806 9806 9806 9807 9807 9807 9807 9807 9807 9808 9808 9808 9807 9807 9807 9807 9806 9806 9805 9804 9803 9802 9801 9800 9799 9798 9796 9795 9793 9791 9790 9788 9786 9784 9782 9780 9779 9777 9775 9773 9771 9770 9768 9767 9765 9764 9762
9820 9819 9817 9817 9816 9815 9814 9813 9813 9812 9811 9810 9809 9809 9808 9807 9807 9806 9806 9806 9805 9805 9805 9804 9805 9805 9805 9804 9805 9805 9805 9805 9805 9805 9805 9806 9806 9806 9806 9807 9807 9807 9807 9807 9806 9806 9806 9806 9806 9806 9806 9805 9805 9805 9804 9803 9802 9801 9800 9799 9797 9796 9794 9793 9791 9789 9787 9786 9784 9782 9780 9778 9777 9775 9773 9771 9769 9767 9766 9764 9762 9761 9759 9758 9757
9821 9819 9818 9818 9817 9816 9815 9814 9814 9813 9812 9811 9810 9809 9809 9808 9807 9807 9807 9807 9807 9806 9806 9806 9806 9806 9806 9805 9806 9806 9806 9806 9806 9807 9807 9807 9807 9807 9807 9807 9807 9806 9806 9806 9805 9805 9805 9805 9805 9804 9804 9804 9803 9802 9801 9800 9799 9798 9797 9795 9793 9792 9790 9788 9786 9784 9782 9780 9778 9776 9775 9773 9771 9769 9767 9765 9763 9762 9760 9758 9756 9755 9754 9752 9751
9821 9820 9819 9819 9818 9817 9816 9816 9815 9814 9813 9812 9811 9810 9809 9809 9808 9808 9808 9808 9808 9807 9807 9807 9807 9807 9807 9807 9807 9807 9807 9807 9807 9807 9807 9807 9807 9807 9807 9806 9806 9806 9805 9805 9805 9804 9804 9803 9803 9802 9802 9801 9800 9799 9798 9797 9796 9794 9793 9791 9789 9787 9785 9783 9781 9779 9777 9775 9773 9771 9769 9768 9766 9764 9762 9760 9758 9756 9754 9752 9751 9749 9748 9747 9745
9822 9821 9820 9820 9819 9818 9817 9817 9816 9815 9814 9813 9812 9811 9810 9809 9809 9809 9809 9809 9809 9809 9809 9809 9808 9808 9808 9808 9808 9808 9808 9808 9807 9807 9807 9807 9807 9807 9806 9806 9805 9805 9804 9804 9804 9803 9803 9802 9801 9800 9800 9799 9797 9796 9795 9793 9792 9790 9788 9787 9785 9783 9781 9779 9776 9774 9772 9770 9768 9766 9765 9763 9761 9758 9756 9754 9752 9750 9748 9746 9745 9744 9742 9741 9739
9823 9822 9821 9821 9820 9819 9818 9817 9817 9816 9815 9814 9813 9812 9811 9811 9810 9810 9810 9810 9810 9810 9810 9810 9810 9810 9810 9809 9809 9809 9808 9808 9808 9808 9808 9807 9807 9806 9806 9805 9805 9804 9804 9803 9803 9802 9801 9800 9799 9798 9797 9795 9794 9792 9791 9789 9788 9786 9784 9782 9780 9778 9776 9774 9772 9770 9768 9765 9763 9761 9759 9757 9755 9753 9750 9748 9746 9744 9742 9741 9739 9738 9737 9735 9734
9824 9823 9822 9822 9821 9820 9819 9818 9818 9817 9816 9815 9814 9813 9812 9812 9812 9812 9812 9812 9812 9812 9812 9812 9812 9812 9811 9811 9810 9810 9809 9809 9809 9808 9808 9807 9807 9806 9806 9805 9805 9804 9803 9802 9801 9800 9799 9798 9797 9795 9794 9792 9790 9789 9787 9785 9784 9782 9780 9778 9776 9774 9772 9770 9767 9765 9763 9761 9759 9756 9754 9752 9749 9747 9745 9742 9740 9738 9737 9735 9734 9732 9731 9729 9728
9825 9824 9824 9823 9822 9821 9820 9819 9818 9818 9817 9816 9815 9814 9814 9813 9813 9813 9813 9813 9814 9814 9814 9814 9813 9813 9813 9812 9812 9811 9810 9810 9809 9809 9808 9807 9807 9806 9806 9805 9804 9803 9802 9801 9800 9798 9797 9795 9794 9792 9790 9789 9787 9785 9784 9782 9780 9778 9776 9774 9772 9770 9768 9765 9763 9761 9759 9757 9754 9752 9749 9746 9744 9741 9739 9737 9735 9733 9731 9730 9728 9727 9725 9724 9722